Location: Cahas Mountain Overlook
(37.0833°N, 80.1000°W)
Time: 10:14:51
(UTC-05:00)

S-56A Canister/Altair - Pass Details

Date: 08 December 2023
Orbit: 640 x 2488 km, 38.9° (Epoch: 25 February)

Event Time Altitude Azimuth Distance (km) Brightness Sun altitude
Rises 08:37:04 0° 206° (SSW) 4,236 11.5 11.6°
Reaches altitude 10° 08:41:16 10° 190° (S) 2,913 11.0 12.3°
Maximum altitude 08:45:40 18° 149° (SSE) 2,036 11.5 12.9°
Drops below altitude 10° 08:49:18 10° 106° (ESE) 2,322 11.4 13.5°
Sets 08:52:08 0° 87° (E) 3,092 11.3 13.9°
